Regional Weather Roundup
Issued by NWS

Home | Current Version | Previous Version | Text Only | Print | Product List | Glossary Off
Versions: 1 2 3 4 5 6 7 8 9 10 11 12 13 14 15 16 17 18 19 20 21 22 23 24 25 26 27 28 29 30 31 32 33 34 35 36 37 38 39 40 41 42 43 44 45 46 47 48 49 50

000
ASUS43 KLOT 251509
RWRIL

ILLINOIS REGIONAL WEATHER ROUNDUP
NATIONAL WEATHER SERVICE CHICAGO/ROMEOVILLE IL
1000 AM CDT TUE JUL 25 2017

NOTE: "FAIR" INDICATES FEW OR NO CLOUDS BELOW 12,000 FEET WITH NO
SIGNIFICANT WEATHER AND/OR OBSTRUCTIONS TO VISIBILITY.

* THESE STATIONS ARE NOT UNDER NWS QUALITY CONTROL. THEY ALSO MAY NOT
  REPORT WEATHER SUCH AS PRECIPITATION OR FOG.

ILZ001-002-007-009-015-016-024-251600-
NORTHWEST ILLINOIS

CITY           SKY/WX    TMP DP  RH WIND       PRES   REMARKS
MOLINE         SUNNY     73  64  73 VRB7      30.15F
STERLING*      SUNNY     71  63  75 SE9       30.18S
SAVANNA*       SUNNY     71  64  76 S7        30.17S
$$

ILZ003-004-008-010-011-017-018-251600-
NORTH CENTRAL ILLINOIS

CITY           SKY/WX    TMP DP  RH WIND       PRES   REMARKS
ROCKFORD       MOSUNNY   74  60  61 S15       30.21R
FREEPORT*      SUNNY     70  62  75 S13       30.20S
ROCHELLE*      SUNNY     71  61  71 S13       30.20S
DE KALB*       SUNNY     71  62  72 S12       30.21S
PERU*          SUNNY    N/A N/A N/A S8        30.20R
$$

ILZ005-006-012>014-019>023-251600-
NORTHEAST ILLINOIS

CITY           SKY/WX    TMP DP  RH WIND       PRES   REMARKS
CHICAGO-OHARE  MOSUNNY   75  56  51 S13       30.20S
CHICAGO-MIDWAY MOSUNNY   75  55  49 S12       30.21R
AURORA         SUNNY     73  61  65 SE10      30.21R
LANSING*       SUNNY     73  56  55 S12       30.22R
JOLIET*        SUNNY     73  60  65 SE10G16   30.21S
WAUKEGAN       SUNNY     73  62  68 SE10      30.20R
DUPAGE AIRPORT SUNNY     72  58  61 S12       30.20S
WHEELING       SUNNY     73  57  57 S14       30.21F
MORRIS*        SUNNY     72  61  68 S9        30.20R
ROMEOVILLE*    SUNNY     72  58  59 SE12G21   30.21S
NORTHERLY ISL    N/A     75  59  57 SE5         N/A
$$

LMZ740>746-251600-
SOUTHERN LAKE MICHIGAN

STATION/POSITION SKY/WX   TEMP    WIND        PRES    VSBY  WAVE
                          AIR SEA DIR/SP/G                  HT/PER
                          (F)     (DEG/KT/KT) (MB)    (MI)  (FT/S)
SOUTHERN BUOY              71 71  170/ 10/ 12 1023.1          1/ 5
WILMETTE HARBOR            70 72  160/ 12/ 16   N/A           2/ 3
HARRISON CRIB              71     160/ 11/ 12   N/A
BURNHAM HARBOR             75                   N/A
CALUMET HARBOR             72     180/  8/ 13 1022.5R
BURNS HARBOR               71     130/  3/  8 1023.7
MICHIGAN CITY              70     140/ 12/ 15   N/A
MICHIGAN CITY 6N           71 74  160/ 10/ 14   N/A           2/ 5
ST. JOSEPH                 70 72  200/  6/  8 1023.5          1/ 5
$$

ILZ025>027-034>036-040-047-049-050-058-095>099-251600-
WEST-CENTRAL ILLINOIS

CITY           SKY/WX    TMP DP  RH WIND       PRES   REMARKS
QUINCY         SUNNY     78  66  66 SE7       30.12F HX  80
GALESBURG*     SUNNY     73  65  78 SE7       30.17S
MACOMB*        SUNNY     73  67  80 SE6       30.17F
JACKSONVILLE*  MOSUNNY   76  67  74 E5        30.13F
PITTSFIELD*    SUNNY     78  68  72 SE8       30.14S
$$

ILZ028>032-037-038-041>044-048-051>054-059>061-251600-
CENTRAL ILLINOIS

CITY           SKY/WX    TMP DP  RH WIND       PRES   REMARKS
PONTIAC        SUNNY     73  65  77 SE12      30.20S
BLOOMINGTON    SUNNY     72  62  71 E13       30.19S
DECATUR        SUNNY     74  64  71 E9        30.17S
PEORIA         SUNNY     74  65  73 SE6       30.16S
LACON*         SUNNY     73  63  71 SE8       30.18R
LINCOLN*       SUNNY     75  66  72 E7        30.16F
SPRINGFIELD    SUNNY     77  68  73 VRB6      30.15S
TAYLORVILLE    MOSUNNY   76  67  74 E6        30.15R
$$

ILZ033-039-045-046-055>057-062-063-251600-
EAST-CENTRAL ILLINOIS

CITY           SKY/WX    TMP DP  RH WIND       PRES   REMARKS
CHAMPAIGN      SUNNY     73  63  70 E9        30.19S
RANTOUL*       SUNNY     74  63  68 E8        30.19S
MATTOON        SUNNY     75  66  73 SE9       30.15S
PARIS*         SUNNY     73  65  76 E9        30.19R
$$

ILZ079-100>102-251600-
SOUTHWEST ILLINOIS

CITY           SKY/WX    TMP DP  RH WIND       PRES   REMARKS
ALTON          MOSUNNY   77  70  78 E9        30.11F
BELLEVILLE     SUNNY     79  70  74 SE8       30.12S HX  82
CAHOKIA*       SUNNY     83  68  60 SE6       30.10S HX  86
SPARTA*        MOSUNNY   80  70  72 E6        30.11S HX  83
$$

ILZ064>066-069>071-074>076-080>082-084>086-088>090-092>094-251600-
SOUTH-CENTRAL ILLINOIS

CITY           SKY/WX    TMP DP  RH WIND       PRES   REMARKS
CARBONDALE     MOSUNNY   80  73  79 SE7       30.09S HX  84
CAIRO*         MOSUNNY   84  78  82 S5        30.08R HX  96
EFFINGHAM*     PTSUNNY   75  68  77 E7        30.17R
MARION         MOSUNNY   82  73  74 E10       30.10S HX  88
MT. VERNON     PTSUNNY   78  70  76 VRB6      30.12  HX  80
CENTRALIA*     PTSUNNY   79  71  77 E8        30.11S HX  81
SALEM*         PTSUNNY   80  69  69 E6        30.13S HX  83
METROPOLIS*    SUNNY     83  76  78 E3        30.09S HX  91
$$

ILZ067-068-072-073-078-083-087-091-251600-
SOUTHEAST ILLINOIS

CITY           SKY/WX    TMP DP  RH WIND       PRES   REMARKS
LAWRENCEVILLE  SUNNY     75  67  76 E7        30.15F
FLORA*         MOSUNNY   79  68  70 E7        30.14R HX  81
FAIRFIELD*     MOSUNNY   78  70  74 E5        30.12S HX  81
HARRISBURG*    PTSUNNY   79  72  79 E7        30.11S HX  83
ROBINSON*      SUNNY     75  65  72 E8        30.16F
CARMI*         PTSUNNY   77  70  80 E7        30.11F
$$

ABBREVIATIONS USED IN REMARKS
   TC - TEMPERATURE IN CELSIUS
  WCI - WIND CHILL INDEX
   HX - HEAT INDEX
  VSB - VISIBILITY
$$





USA.gov is the U.S. government's official web portal to all federal, state and local government web resources and services.